GFSWCAN_2pvu_pres_087.txt.gz
Presure
281 278 270 271 271 268 268 268 270 266 266 258 257 265 271 272 271 272 265 265 258 271 269 281 313 167 313 305 300 297 226 300 266 267 262 230 265 270 276 174 283 288 292 292 293 296 295 231 296 281 280 282 274 264
274 269 268 267 268 272 266 262 256 255 258 255 265 276 286 290 292 347 333 262 256 268 266 273 293 319 321 283 300 111 285 287 315 311 268 262 266 267 265 266 273 273 269 271 276 282 285 278 246 260 262 277 270 252
272 265 263 265 261 260 274 284 299 316 347 339 334 325 322 321 323 325 332 333 263 249 277 263 285 299 393 378 315 133 294 311 299 308 265 264 262 262 261 266 262 262 264 273 273 310 274 272 272 258 263 260 259 267
266 258 248 273 321 346 336 330 331 342 360 359 353 339 320 310 312 312 319 167 361 309 268 267 275 287 311 347 344 326 192 209 319 317 292 258 252 255 251 250 268 285 278 271 275 300 327 304 309 267 256 260 263 259
252 241 309 309 340 353 366 373 372 371 357 358 357 394 349 336 321 315 317 322 354 309 270 268 278 272 284 325 330 313 309 323 317 316 327 322 311 297 292 286 289 277 272 279 290 296 299 304 285 284 263 254 258 260
296 296 348 352 323 372 386 387 385 374 362 363 359 371 349 329 340 336 330 336 100 311 274 264 270 279 277 191 331 319 317 139 320 318 321 304 294 282 281 280 273 275 274 275 273 273 294 283 289 268 258 257 256 259
292 303 337 329 366 355 371 386 395 402 386 354 358 355 368 333 340 339 154 135 230 328 141 251 259 273 277 112 149 116 218 332 324 314 303 293 288 280 272 278 273 269 273 270 271 268 282 280 273 259 261 260 259 258
292 332 341 364 366 351 362 381 417 409 400 374 349 330 332 335 322 182 169 341 335 352 276 257 236 268 252 262 271 326 305 306 211 304 295 271 286 275 273 273 269 264 258 260 266 268 269 274 270 265 264 256 254 263
315 339 348 338 338 332 352 366 384 387 393 348 328 329 317 308 310 315 197 330 175 337 269 274 263 251 264 258 268 142 135 300 289 274 269 288 274 277 263 265 261 259 261 264 267 267 268 269 269 268 266 269 272 276
323 354 350 338 348 336 338 342 342 337 326 325 320 312 310 306 305 307 288 323 188 335 337 221 263 256 256 238 222 125 211 294 301 274 273 263 269 257 257 255 257 258 259 267 270 265 265 263 263 265 269 270 272 275
335 344 323 313 320 326 342 337 324 315 317 317 311 309 310 312 308 312 326 340 292 351 355 308 264 187 228 238 240 244 250 256 262 288 290 294 273 234 272 267 263 263 266 264 263 259 260 261 265 263 261 261 260 262
337 325 321 287 310 309 310 321 328 326 322 320 321 325 333 337 336 330 332 336 354 373 366 366 219 274 256 248 261 249 236 248 254 258 236 284 203 195 277 279 277 273 268 260 260 259 210 253 266 241 268 270 274 271
293 316 321 330 325 326 326 320 320 323 324 320 317 313 319 324 322 324 323 329 328 315 331 346 356 351 278 268 241 250 206 253 253 260 126 145 211 252 267 260 261 265 265 261 260 261 260 260 261 253 264 262 263 215
301 324 322 295 325 318 307 302 292 295 292 294 293 297 301 303 305 304 301 308 314 322 326 319 323 352 370 279 266 257 251 275 281 282 230 153 280 260 258 258 260 246 256 249 235 253 255 253 265 229 215 277 304 285
306 303 293 270 285 295 291 293 291 289 287 286 289 294 298 306 303 300 304 306 309 313 307 304 306 313 326 299 217 290 280 137 272 265 246 249 243 253 260 202 248 267 259 255 286 315 306 308 312 315 321 328 161 340
295 290 302 291 296 298 287 291 291 292 296 296 301 281 307 315 325 317 315 315 316 324 320 322 318 323 324 269 327 339 339 345 306 266 280 280 281 281 285 282 282 300 202 290 287 286 287 288 184 286 289 298 299 294
322 303 297 291 295 297 295 301 299 297 297 282 209 238 278 278 276 275 275 277 281 280 278 285 285 290 306 324 300 341 338 342 344 346 348 323 313 308 299 291 286 281 279 276 273 277 300 305 304 334 302 283 280 283
332 315 314 303 307 314 300 279 274 274 271 268 267 267 269 268 266 264 266 272 272 275 283 287 292 292 285 276 278 283 287 287 284 283 281 279 275 267 267 266 264 269 279 297 294 290 300 289 297 297 302 319 318 297
326 332 307 296 277 274 269 265 259 250 261 265 262 261 271 278 278 270 266 262 263 262 263 264 266 270 274 305 360 290 262 265 268 271 269 272 289 290 298 309 303 308 304 290 287 288 294 295 298 295 294 301 303 305
267 265 263 261 262 265 266 261 268 271 276 279 277 271 264 261 259 257 258 258 257 255 253 253 258 247 263 263 271 274 272 267 271 271 272 272 270 267 266 266 271 272 272 272 268 263 262 266 270 268 271 268 268 275
265 263 264 271 268 272 278 276 269 258 257 257 257 257 254 251 247 244 244 245 244 245 246 243 245 255 259 251 246 247 248 247 249 250 254 254 257 260 266 263 260 259 256 258 251 251 262 268 263 261 263 266 266 270
269 271 284 289 279 260 257 257 248 245 245 241 241 242 242 243 241 241 234 237 237 234 242 239 236 237 236 235 235 235 240 244 247 248 249 251 253 255 256 255 259 259 269 278 278 277 264 253 254 254 261 283 282 282
260 240 243 240 247 229 219 235 239 239 238 243 245 244 249 251 234 235 236 239 241 240 248 257 250 246 239 252 254 254 253 259 264 263 271 267 271 278 277 277 286 293 292 290 289 290 293 293 294 296 296 296 294 292
239 241 244 244 242 249 249 235 234 239 242 239 241 243 244 245 237 239 250 248 258 247 244 247 244 248 255 257 260 262 265 265 276 284 284 277 282 286 290 299 302 305 307 306 308 311 312 313 313 313 313 312 312 312
240 243 236 230 232 237 237 241 229 238 239 240 241 240 233 247 250 249 249 243 245 248 248 249 252 258 258 261 269 265 279 277 283 296 333 345 350 395 389 387 386 386 383 386 387 384 382 381 382 386 387 386 385 384
229 236 236 235 232 238 223 231 223 236 243 246 247 242 245 246 246 241 245 243 245 245 249 249 250 261 262 270 273 288 320 375 398 386 368 360 361 371 393 391 416 413 411 473 467 461 455 446 442 448 449 446 443 441
237 237 245 238 239 244 246 245 246 243 239 242 245 245 244 241 244 243 242 244 246 243 253 254 264 267 281 305 337 388 393 378 358 349 386 447 480 475 471 466 469 470 466 460 454 448 445 445 442 439 434 429 421 414
246 242 240 236 242 247 243 242 240 239 240 241 244 240 241 245 245 244 246 248 250 254 266 256 316 332 338 353 392 374 357 341 391 458 454 438 426 420 418 417 415 415 444 443 435 429 423 416 409 403 400 397 395 393
247 248 245 243 243 244 239 239 240 239 242 245 247 243 240 246 248 245 252 256 266 282 299 319 332 326 390 376 354 352 401 388 462 437 419 408 402 401 416 482 414 406 395 390 392 403 404 400 395 391 387 383 379 373
241 247 253 253 251 244 241 242 239 242 242 245 248 248 250 249 252 258 265 282 285 300 315 330 328 385 364 341 395 386 374 453 430 414 404 395 398 397 421 427 440 443 444 446 445 453 462 466 466 462 455 443 397 390
244 250 251 247 245 251 252 248 247 246 244 244 250 254 261 261 261 277 284 288 300 311 327 330 375 361 336 389 375 365 454 437 419 407 388 374 368 369 368 368 367 376 385 381 379 377 373 371 371 373 373 371 368 361
250 248 248 245 249 250 248 252 250 251 261 259 260 261 261 278 280 281 292 302 309 324 337 344 360 334 388 371 355 455 437 422 406 384 372 364 354 352 353 354 355 370 366 367 373 364 363 360 358 360 361 357 353 350
247 248 249 242 245 252 252 255 262 262 258 264 259 274 280 276 288 286 300 310 317 337 343 360 337 379 369 350 459 440 421 406 391 377 364 356 354 355 353 354 379 384 375 372 364 367 363 357 359 360 355 351 350 349

GFSWCAN_2pvu_pres_093.txt.gz
Presure
273 280 280 270 337 319 314 298 282 288 290 281 276 276 274 269 274 274 267 267 260 264 268 267 266 268 268 276 285 316 366 348 327 125 231 290 292 288 277 272 264 268 266 271 272 260 254 258 245 243 250 251 241 238
278 285 282 278 336 322 301 296 278 269 269 267 260 259 261 264 271 275 274 275 275 263 264 272 270 270 265 276 278 300 364 342 335 315 297 290 289 288 280 271 274 262 251 275 268 263 259 250 249 256 254 247 252 241
279 282 287 297 339 330 303 289 279 276 266 258 255 257 259 263 261 261 265 266 264 267 263 261 260 262 268 266 270 289 348 323 306 296 196 288 293 291 283 276 269 260 256 271 279 275 268 256 247 243 251 235 251 258
275 279 281 333 319 300 294 287 282 274 256 256 261 262 256 249 247 245 252 254 253 259 258 260 266 256 254 266 266 282 333 346 297 289 288 289 295 298 284 278 271 261 257 262 283 293 286 277 259 269 260 247 238 261
275 282 280 312 298 290 284 282 266 258 254 286 292 305 302 304 297 266 264 258 259 265 266 269 292 263 257 259 267 278 300 309 283 283 278 276 276 308 293 284 269 259 251 253 261 272 278 286 287 295 296 292 288 272
278 280 320 296 285 282 262 278 307 309 312 391 381 366 323 341 341 104 316 325 322 294 328 328 335 372 249 271 264 275 317 293 295 104 283 283 285 296 305 279 264 254 250 256 253 265 270 264 268 272 274 278 280 284
281 304 295 282 267 283 306 363 362 360 356 356 371 361 380 354 339 338 297 300 302 304 306 314 322 332 310 251 268 274 331 292 289 254 285 283 283 285 299 256 244 249 252 250 256 259 258 255 260 266 261 259 260 264
297 293 277 268 293 347 357 373 402 399 388 371 359 350 345 358 346 335 323 267 305 296 295 304 333 313 296 243 266 274 309 309 288 286 283 287 306 306 303 321 274 256 253 258 255 256 259 255 260 253 250 284 316 322
289 270 279 297 361 349 360 368 365 407 380 366 351 334 336 343 339 340 322 314 309 302 294 299 325 302 255 267 232 269 326 320 310 309 282 302 316 310 313 304 297 267 255 256 252 251 250 250 254 278 273 272 276 301
265 280 299 364 337 326 328 352 378 368 354 363 330 332 330 357 339 325 316 313 316 307 184 296 318 300 284 264 259 267 294 304 310 294 315 295 304 296 303 292 287 288 292 255 254 281 278 274 273 269 276 269 268 264
281 296 349 334 339 326 324 331 336 339 337 339 338 334 319 312 314 311 211 315 282 309 300 293 312 311 247 264 177 222 183 122 310 292 303 285 303 287 276 294 279 281 281 291 281 277 274 272 267 266 269 272 272 271
300 327 325 315 321 319 319 320 318 319 321 322 319 318 309 306 312 244 258 321 125 153 325 308 316 318 208 268 176 128 147 291 304 300 308 305 297 293 285 289 287 279 274 275 275 265 263 261 263 266 216 263 259 252
316 306 323 303 310 307 298 297 302 305 308 305 302 295 289 298 302 128 304 293 281 316 329 311 318 318 294 177 271 272 263 265 292 286 294 169 311 270 125 250 298 259 277 271 271 271 269 268 270 270 269 269 269 270
309 313 312 312 304 297 297 297 296 304 308 306 308 310 315 325 328 328 331 232 313 317 324 315 329 320 308 233 258 265 258 264 259 252 283 291 280 301 221 127 292 280 281 275 275 275 265 268 265 267 269 269 274 276
315 307 299 314 311 306 305 304 303 304 310 306 304 303 306 307 310 315 318 334 356 359 328 328 344 335 296 260 254 254 253 228 231 238 247 255 246 242 154 201 277 278 278 280 281 261 258 268 271 275 279 281 275 268
315 317 310 299 293 293 294 297 304 302 297 295 302 309 306 302 303 305 306 307 312 320 325 335 345 346 355 298 257 243 239 157 237 236 226 237 244 228 235 227 242 246 252 259 267 262 263 271 271 259 264 215 264 261
299 294 294 292 299 297 299 303 312 296 297 304 306 309 304 302 298 308 308 314 322 322 321 324 326 335 340 347 348 283 269 255 252 258 264 265 264 263 261 219 261 269 263 261 240 268 264 262 255 251 247 247 249 251
290 288 293 294 295 301 303 301 303 280 276 277 277 277 278 278 278 282 285 290 293 297 298 298 300 300 311 325 333 344 311 294 290 287 281 283 282 287 291 290 299 277 234 253 249 244 239 253 318 317 308 300 291 287
293 295 296 289 277 273 269 269 272 274 276 280 279 274 270 268 266 266 268 267 268 269 269 268 270 271 281 309 292 284 265 298 305 212 315 296 313 290 301 295 242 296 296 296 296 294 292 290 290 283 288 300 317 318
298 278 268 268 265 263 268 271 277 270 264 258 258 257 258 257 257 258 256 251 248 247 248 259 258 258 253 257 260 259 260 259 263 266 267 269 270 270 270 271 270 271 272 271 272 271 269 268 266 267 270 273 274 273
269 275 267 269 267 274 273 260 257 256 247 250 251 254 250 253 247 248 246 247 248 246 243 245 246 248 248 249 250 248 247 247 246 246 251 255 251 259 255 260 260 262 260 261 261 262 263 263 264 265 264 265 269 267
260 269 274 276 270 261 259 251 248 246 249 248 246 245 243 245 241 237 243 242 243 238 258 257 252 249 250 252 251 253 251 253 252 250 254 256 268 273 275 276 278 280 282 284 285 284 285 288 285 275 278 283 283 282
273 278 275 261 253 251 247 248 247 247 241 242 246 247 248 241 250 247 244 241 247 244 245 245 244 245 249 250 253 258 264 265 269 266 274 282 288 293 294 296 298 301 303 303 303 303 301 301 301 301 299 297 296 293
259 250 245 244 247 246 245 242 245 243 242 241 242 243 240 243 240 238 240 236 245 244 242 242 249 252 254 258 259 261 258 263 277 290 297 308 340 348 351 355 354 354 356 357 359 360 358 358 359 357 355 353 347 345
239 239 242 238 235 240 237 239 242 245 241 241 240 240 237 240 245 242 237 243 240 242 242 246 252 252 248 258 257 256 269 287 351 356 392 388 381 375 370 366 367 367 369 368 369 373 372 371 372 372 368 375 373 370
244 232 235 235 232 232 244 244 246 241 238 239 235 234 236 239 233 239 242 243 240 241 247 245 251 247 255 258 261 304 346 360 387 372 361 372 392 390 387 385 384 380 383 402 405 434 431 430 429 432 444 467 463 458
238 237 239 241 242 244 248 243 238 237 233 235 232 234 236 240 241 242 237 242 244 247 242 251 248 253 259 311 348 345 390 370 356 394 387 378 371 381 443 455 443 430 422 415 410 406 407 440 426 403 400 400 423 436
235 234 243 236 236 238 242 240 237 238 238 239 236 239 244 239 242 244 240 245 245 245 244 253 253 282 315 341 338 386 361 375 385 374 368 458 460 447 438 430 421 407 397 389 385 400 486 479 467 450 435 424 414 405
243 243 246 246 245 244 243 243 243 244 244 241 246 241 243 244 241 241 246 242 248 243 252 281 291 298 324 342 383 362 366 383 369 368 461 445 437 425 417 408 393 378 370 367 363 360 362 366 366 365 384 385 385 390
241 242 240 238 239 243 245 246 244 236 232 240 239 239 240 238 247 248 248 242 249 272 286 291 297 311 340 365 367 349 385 368 371 461 440 424 410 402 394 383 376 368 362 359 358 361 362 358 356 363 377 373 371 368
244 240 234 238 242 242 238 242 239 248 249 244 243 242 249 250 250 253 248 263 278 284 286 289 299 311 343 369 350 378 372 361 466 445 424 409 396 383 376 371 367 364 364 362 358 367 388 367 388 391 377 377 375 368
241 243 240 237 241 243 244 245 244 246 244 238 252 245 247 252 258 262 266 269 281 286 296 300 309 322 360 360 342 379 360 371 454 432 413 399 389 379 376 370 363 367 364 365 430 421 419 411 405 402 392 389 379 376
235 234 240 238 238 237 246 246 247 249 249 248 245 255 252 256 263 266 269 284 287 294 299 294 312 331 359 350 343 370 354 428 445 421 403 389 385 379 372 369 375 368 364 376 369 430 419 410 407 400 397 391 387 381

GFSWCAN_2pvu_pres_096.txt.gz
Presure
281 280 276 279 269 279 279 284 277 318 304 295 271 265 283 280 276 267 267 270 263 265 269 268 272 263 263 264 270 288 296 355 357 358 346 267 371 390 295 286 278 275 269 267 266 277 264 260 251 252 257 243 253 238
291 288 283 280 272 281 286 287 290 346 311 298 286 292 283 271 247 273 270 265 266 266 270 267 272 266 263 269 265 278 296 333 346 333 335 329 320 293 283 282 276 268 264 266 269 264 273 253 253 249 251 247 236 251
311 303 295 288 286 280 283 287 323 339 317 308 283 273 272 270 264 267 267 278 268 262 270 269 270 261 267 264 267 266 283 299 356 336 322 305 298 282 276 289 271 291 267 271 263 268 261 271 258 251 250 257 248 234
320 309 299 291 293 282 281 281 335 324 307 298 287 280 275 264 258 258 264 265 265 271 272 275 264 260 260 247 274 264 283 295 343 315 311 298 289 280 285 286 283 280 269 266 264 259 259 263 262 261 263 259 254 243
317 306 298 297 285 279 283 279 307 299 296 294 287 281 276 254 255 260 264 260 257 262 265 263 261 262 259 259 257 271 273 293 351 311 304 298 287 284 290 290 285 286 265 260 262 244 251 258 265 270 267 264 263 255
315 301 299 292 283 282 279 316 302 297 289 288 286 273 265 259 253 250 111 258 254 253 260 260 259 253 252 259 266 264 267 293 135 292 291 290 291 283 282 279 288 280 264 260 260 264 257 263 286 288 282 279 270 262
306 298 291 282 290 282 289 306 299 280 277 286 295 304 306 307 305 302 293 290 292 300 296 334 305 287 290 269 341 257 269 294 303 147 291 285 287 291 293 305 304 281 268 266 264 258 261 273 289 287 290 293 298 293
296 288 282 287 285 289 301 290 302 347 370 366 356 347 342 352 362 371 330 312 324 319 308 327 324 323 334 341 322 270 267 294 296 279 197 284 285 282 275 287 306 293 277 270 268 266 257 253 255 254 262 267 269 271
287 286 284 278 299 288 300 351 405 421 373 368 369 343 333 357 371 347 323 311 322 307 303 303 301 313 329 319 304 248 268 292 300 288 286 289 287 284 277 286 297 300 294 270 267 258 253 249 256 262 260 262 257 263
285 278 284 288 288 348 348 374 385 385 383 365 355 349 336 342 345 324 305 306 327 308 300 300 295 324 311 303 291 277 269 292 307 290 284 280 277 274 276 279 279 298 272 260 255 247 249 255 255 256 259 253 257 259
279 291 281 310 335 337 345 350 364 354 349 348 345 327 328 326 322 313 307 321 326 307 266 298 294 320 227 138 234 271 254 317 248 293 291 291 305 315 304 315 299 306 306 308 278 264 259 255 255 254 254 251 252 263
283 286 330 327 326 328 338 340 332 320 318 317 326 324 321 316 327 324 318 326 288 311 304 299 294 320 187 290 98 265 163 219 328 325 317 312 298 298 293 290 300 304 293 296 293 270 259 251 250 250 258 270 279 273
294 327 324 313 308 304 313 327 343 328 328 333 342 347 339 327 323 330 269 313 155 290 311 301 301 310 300 277 283 239 256 273 311 328 319 303 143 288 290 291 293 287 298 287 290 292 292 294 280 277 271 272 271 271
327 314 311 302 305 295 295 296 303 301 298 296 295 296 301 208 301 305 310 230 315 317 321 321 305 298 318 293 282 263 275 224 303 281 291 278 292 294 293 304 294 290 293 289 293 287 287 286 277 286 277 274 266 269
321 304 295 296 294 299 311 309 308 311 314 317 317 319 200 240 307 306 307 307 250 315 322 338 325 322 317 314 186 266 270 265 267 279 290 294 286 297 301 309 317 239 304 297 298 306 285 277 278 282 284 283 282 281
311 310 312 316 310 310 314 310 307 304 301 305 312 314 314 315 319 326 344 360 362 329 333 337 327 333 344 287 239 263 260 258 249 262 243 247 260 261 257 251 238 256 261 267 268 270 273 275 274 273 253 262 280 275
307 296 297 302 302 304 294 301 307 300 323 295 297 297 298 305 316 316 320 320 330 337 341 342 355 356 337 238 248 249 255 254 252 232 228 244 235 234 237 251 254 255 225 258 256 261 256 255 253 252 261 263 270 266
289 292 298 306 299 295 303 303 299 298 294 282 279 282 287 289 289 291 291 294 296 299 305 304 312 317 325 337 338 243 239 242 239 240 242 225 240 249 247 231 252 255 258 267 263 266 263 266 275 269 273 273 255 252
296 309 308 307 302 295 281 277 278 283 281 273 267 266 267 267 267 266 265 266 267 270 271 273 275 275 275 282 281 285 289 287 287 289 315 285 285 281 227 287 285 292 291 297 303 317 251 310 251 248 277 280 323 313
302 291 272 274 277 277 278 268 263 233 257 255 257 255 255 256 256 255 257 259 259 259 262 261 263 264 263 259 262 267 270 268 266 265 266 267 268 232 266 268 266 269 268 269 271 274 272 275 275 273 273 274 273 271
269 274 276 279 267 260 259 255 259 256 256 257 257 255 254 255 253 251 251 254 263 261 245 246 253 254 253 257 256 254 251 251 247 248 248 248 253 247 249 250 252 255 258 262 261 262 264 263 265 265 264 265 264 265
274 277 271 257 257 253 248 251 252 249 249 244 242 247 252 250 250 246 249 251 246 243 248 247 249 253 253 257 260 262 266 268 265 265 263 268 279 283 288 291 294 297 299 297 296 297 295 293 292 287 282 281 281 279
277 259 256 251 250 253 248 248 244 244 244 237 249 249 242 244 237 239 242 242 241 238 239 241 248 252 253 259 259 261 261 263 261 267 276 291 303 313 329 334 340 340 343 344 343 340 337 335 332 326 322 318 316 315
257 252 247 250 250 245 244 243 245 244 240 241 241 243 246 243 239 244 243 238 245 243 244 249 251 250 251 256 258 261 262 265 283 343 357 376 393 395 389 384 380 378 378 380 378 379 377 377 378 377 377 377 377 378
251 251 247 242 245 244 248 248 246 245 243 241 239 238 232 235 241 238 241 243 236 247 248 248 247 248 249 257 256 260 292 354 366 395 381 367 363 370 396 393 390 388 384 383 380 379 382 384 386 387 386 388 390 396
241 234 242 242 245 245 243 239 238 239 237 234 235 233 236 245 240 241 244 245 247 245 246 243 245 249 253 257 260 319 348 376 380 361 374 390 384 381 377 371 402 398 467 462 456 448 441 433 427 422 415 410 409 407
244 238 247 247 245 245 240 237 234 239 239 237 233 238 242 239 240 246 244 247 244 247 238 242 250 249 257 298 312 325 352 376 354 393 382 369 436 473 461 452 446 440 435 430 426 417 407 400 395 392 473 476 464 451
249 243 239 240 243 242 240 242 242 241 235 236 238 241 228 246 244 244 248 246 241 245 253 250 253 253 301 310 313 336 371 362 365 382 368 478 457 442 430 420 418 416 409 398 387 378 371 367 366 363 360 359 364 369
238 242 245 247 246 246 245 244 244 241 239 236 248 244 243 244 244 247 246 243 244 253 249 252 267 299 305 316 316 341 367 351 386 367 479 456 434 418 406 398 391 386 381 376 370 365 361 358 358 360 363 363 361 355
245 243 242 241 241 243 244 239 241 242 239 244 243 243 237 242 246 249 246 252 250 248 253 268 295 301 309 310 319 340 364 344 376 358 459 435 417 407 398 387 380 375 371 365 362 364 363 360 362 397 403 385 404 371
246 241 237 238 239 240 242 242 243 244 244 240 244 243 247 247 243 250 251 256 258 261 276 288 297 305 314 317 320 337 361 340 369 356 453 424 410 396 388 387 380 373 374 379 376 365 362 369 374 416 417 413 401 403
242 242 238 233 240 240 236 239 240 244 244 249 246 240 247 248 255 249 263 253 270 274 288 289 300 306 317 321 323 335 358 341 363 352 452 415 390 376 373 373 375 370 368 366 369 369 372 373 380 415 413 408 408 400
242 241 240 237 234 235 236 234 245 245 246 254 241 247 246 258 260 267 266 275 270 281 284 297 305 308 317 319 327 338 354 349 359 347 454 411 385 374 373 380 381 381 376 376 370 372 369 375 366 370 401 403 406 410

GFSWCAN_2pvu_pres_102.txt.gz
Presure
266 256 256 255 256 257 259 255 258 264 267 269 280 279 278 275 276 292 299 282 278 281 275 272 262 264 260 259 261 259 262 275 290 312 390 371 365 374 330 314 320 306 307 296 295 286 283 294 297 279 270 290 275 280
293 277 269 267 267 264 264 275 278 278 276 280 279 270 283 276 270 270 288 268 282 274 272 274 268 260 257 255 249 264 261 265 268 297 376 363 354 358 366 326 317 325 299 295 286 279 286 289 277 276 276 272 276 274
302 295 295 289 288 286 280 281 280 279 281 274 275 275 291 284 269 270 295 284 273 283 285 267 260 254 258 262 259 263 263 263 271 289 368 366 340 349 345 338 313 315 286 283 286 285 289 272 276 279 260 269 278 269
346 326 333 293 292 288 284 279 274 276 275 280 284 282 294 288 277 271 308 286 274 275 281 283 262 257 258 255 264 258 261 264 262 279 295 337 336 350 346 310 294 300 312 293 307 308 279 267 276 287 275 273 264 262
366 355 350 347 338 319 294 305 300 294 299 299 293 294 294 286 279 283 329 293 281 275 280 275 267 264 263 261 264 260 260 261 264 267 279 345 328 334 344 323 293 292 294 283 287 306 312 291 264 277 272 266 263 269
372 378 381 369 351 338 330 324 316 315 307 305 298 300 291 283 277 334 322 297 283 293 272 277 268 272 261 266 270 261 258 259 261 257 272 171 345 345 341 328 305 285 277 288 287 306 305 272 262 279 275 266 259 263
354 358 362 367 368 357 350 331 321 313 314 302 302 296 287 278 275 309 315 236 304 290 280 263 268 262 263 266 270 270 257 247 258 261 265 287 348 339 325 300 287 294 274 286 281 301 290 270 266 270 282 267 264 255
338 338 340 354 359 349 340 332 323 317 305 306 299 288 286 279 276 80 297 295 297 297 283 264 251 254 257 260 260 262 262 264 245 260 268 275 344 228 294 306 293 291 291 281 292 287 292 281 272 262 268 281 274 265
324 326 333 355 348 336 330 324 316 314 308 300 291 293 285 283 272 293 296 292 293 294 289 277 267 261 256 259 250 252 258 262 257 260 264 267 306 284 301 308 292 290 282 297 298 301 286 298 287 269 269 264 261 261
321 343 346 332 324 321 317 314 309 304 296 294 291 287 293 273 287 299 297 299 285 285 284 290 286 251 260 274 298 304 329 305 257 267 260 265 295 294 295 290 295 288 282 279 274 271 281 289 289 271 263 262 264 266
340 329 320 316 313 310 307 302 300 297 292 291 294 290 286 288 292 288 289 290 294 318 307 301 283 283 299 305 327 321 321 328 329 282 312 262 294 291 289 285 281 280 278 275 274 279 283 285 285 275 273 268 254 263
321 313 308 305 299 293 291 290 293 297 373 373 353 344 332 334 326 327 337 356 366 349 332 327 323 317 316 313 303 317 330 323 313 305 291 265 331 289 274 270 271 275 277 277 278 283 285 286 293 297 290 284 275 263
304 296 293 290 285 292 340 345 361 355 354 343 342 340 334 333 338 342 358 349 325 315 314 310 309 300 301 296 295 311 331 131 305 284 256 265 296 287 273 273 269 274 275 274 276 278 276 275 293 307 315 292 281 282
290 286 286 318 335 322 355 340 334 337 333 336 330 323 324 327 330 205 315 311 308 308 304 302 286 289 289 291 103 291 316 298 287 251 252 269 305 296 285 283 277 278 281 282 282 281 282 283 291 295 301 297 295 297
302 318 337 339 334 338 337 325 321 311 315 311 318 326 321 332 323 317 308 242 297 305 308 309 299 285 287 244 198 250 223 288 280 267 248 253 290 308 298 288 287 286 288 285 287 295 287 290 304 295 297 296 304 307
315 319 318 311 308 310 313 317 316 307 320 311 317 321 322 243 157 164 254 177 310 308 309 312 305 293 287 290 239 187 210 281 185 190 264 265 270 220 234 316 309 311 318 319 306 299 314 313 312 311 312 313 316 317
303 302 307 306 295 293 302 302 305 300 312 311 310 310 282 306 308 314 317 317 318 314 314 315 317 315 311 296 308 323 288 277 276 260 197 134 320 318 313 310 310 313 302 299 157 195 296 299 302 304 306 310 333 337
311 312 309 320 324 323 323 327 326 328 326 330 332 334 334 340 339 343 339 328 328 326 330 331 339 348 347 340 309 320 296 281 260 262 267 265 259 259 260 258 262 264 260 259 259 261 262 262 265 263 261 261 260 261
314 315 316 318 308 302 303 304 303 299 295 288 283 282 282 281 281 280 280 280 280 280 280 279 282 285 286 292 322 323 303 246 252 255 253 254 257 257 257 257 257 237 236 238 246 255 260 238 246 279 313 308 300 295
300 298 299 298 295 282 274 272 275 273 271 267 268 268 269 269 269 268 268 267 265 264 265 266 267 266 266 266 268 268 235 245 269 274 273 274 275 276 276 275 276 277 277 278 278 278 279 280 232 280 281 285 263 285
299 286 271 267 270 176 268 261 262 259 260 258 258 257 255 256 256 257 256 259 261 262 259 260 261 260 259 255 251 252 265 270 270 269 259 256 252 251 250 249 251 256 261 262 263 264 270 273 276 276 278 278 276 276
266 267 264 263 262 262 257 254 256 253 256 247 248 248 245 244 244 246 248 256 255 255 256 257 256 255 254 260 262 258 256 253 249 247 248 265 269 250 309 311 316 322 336 340 344 274 302 301 302 302 302 307 290 291
266 262 258 252 254 255 248 250 245 247 251 250 249 250 250 248 247 246 250 254 247 243 238 235 240 243 236 237 247 259 263 263 266 277 334 336 343 330 316 380 376 375 375 388 388 387 386 378 374 379 383 385 387 388
255 255 253 250 247 239 248 247 250 245 237 242 242 246 241 245 243 251 244 242 248 250 250 250 250 249 250 254 249 259 263 262 314 337 333 352 398 373 382 390 380 379 481 475 470 468 468 381 380 380 381 383 386 389
247 244 254 248 245 248 249 242 240 244 245 243 246 244 243 244 247 250 250 245 245 247 250 250 251 256 248 251 262 269 265 301 335 335 343 367 375 370 379 373 468 454 446 443 442 446 451 453 453 454 456 456 455 453
247 252 251 243 238 245 240 242 242 245 246 242 246 245 243 245 249 248 243 244 237 244 243 247 256 262 250 258 262 275 318 328 337 332 347 378 365 389 365 460 431 420 413 412 404 402 407 415 419 417 416 417 417 415
250 240 239 238 235 239 234 242 245 242 241 244 242 242 241 245 243 239 234 240 238 248 252 249 250 252 255 265 271 308 324 321 333 336 346 371 359 376 361 451 419 399 394 394 395 388 383 379 378 377 376 376 375 373
246 238 240 226 241 243 247 249 241 242 239 242 245 246 245 244 240 243 248 219 243 251 253 252 254 258 261 275 268 316 318 322 332 337 345 359 357 367 357 443 409 395 391 388 386 383 383 381 376 376 376 374 367 367
239 236 238 234 250 252 247 247 243 239 236 241 243 242 245 243 238 236 235 235 253 255 256 253 263 263 274 273 298 318 314 321 335 335 341 354 356 360 354 446 403 395 422 414 410 399 392 387 383 379 376 373 373 371
245 245 251 250 246 242 244 246 242 242 238 237 242 238 236 245 248 245 237 253 255 257 259 260 257 273 280 278 298 317 316 317 340 332 336 347 353 354 356 433 414 382 406 395 388 411 412 400 389 383 383 382 379 378
254 249 243 243 243 245 242 237 229 234 237 244 244 243 240 243 233 253 258 258 254 260 262 262 269 278 279 281 295 311 321 316 334 333 336 340 356 349 356 358 438 388 401 389 385 378 367 385 417 410 403 393 384 383
238 237 241 241 232 239 239 234 234 241 240 244 241 233 245 247 247 257 261 251 256 260 271 260 276 281 277 290 299 309 319 313 330 332 335 335 352 345 354 350 460 408 392 400 377 367 370 374 419 415 354 404 397 392
242 244 241 241 243 242 231 237 244 241 239 242 234 243 241 249 250 257 259 256 264 271 263 272 278 269 278 293 307 314 326 321 330 332 333 328 349 343 350 345 374 438 399 407 384 367 360 362 364 370 408 409 408 404